User: anonymous   Login
Location: Unspecified
(0.0000°N, 0.0000°E)
Time: 23:44:20
(UTC+01:00)
Language:

SJ-6B - Orbit

View from above orbital plane
View from above orbital plane
View from above satellite
View from above satellite

Ground track
Ground track

The orbit data is extracted from the following two-line orbital elements,

1 28415U 04035C   15032.52310814  .00003922  00000-0  28132-3 0  4043
2 28415 097.7961 043.7128 0055454 175.7255 184.4456 15.03705135568192
Epoch (UTC): 01 February 2015 12:33:16
Eccentricity: 0.0055454
inclination: 97.7961°
perigee height: 517 km
apogee height: 594 km
right ascension of ascending node: 43.7128°
argument of perigee: 175.7255°
revolutions per day: 15.03705135
mean anomaly at epoch: 184.4456°
orbit number at epoch: 56819

The dashed part of the orbit path shows where the satellite is in the earth's shadow,  

DLR